Weather History for Pine Bluff, AR

Change the Weather History Date:

Tuesday, September 2, 2014

  Actual Average Record
Temperature  
Mean Temperature 79 °F 79 °F  
Max Temperature 85 °F 90 °F 106 °F (1947)
Min Temperature 73 °F 68 °F 52 °F (1886)
Degree Days  
Heating Degree Days 0 0  
Month to date heating degree days 0 0  
Since 1 July heating degree days 1 0  
Cooling Degree Days 14 14  
Month to date cooling degree days 30 28  
Year to date cooling degree days 1531 1786  
Growing Degree Days 28 (Base 50)    
Moisture  
Dew Point 73 °F    
Average Humidity 82    
Maximum Humidity 94    
Minimum Humidity 70    
Precipitation  
Precipitation 0.08 in 0.07 in 2.42 in (1902)
Month to date precipitation 0.08 0.14  
Year to date precipitation 29.99 33.33  
Snow  
Snow 0.00 in 0.00 in - ()
Month to date snowfall 0.0 0.0  
Since 1 July snowfall 0.0 0.0  
Since 1 September snowfall 0.0 0.0  
Snow Depth 0.00 in    
Sea Level Pressure  
Sea Level Pressure 30.00 in    
Wind  
Wind Speed 6 mph (SW)    
Max Wind Speed 21 mph    
Max Gust Speed 27 mph    
Visibility 10 miles    
Events Rain , Thunderstorm    
T = Trace of Precipitation, MM = Missing Value Source: NWS Daily Summary

Daily Weather History Graph

Daily Weather History Graph

Search for Another Location

Airport:

Trip Planner

Search our weather history database for the weather conditions in past years. The results will help you decide how hot, cold, wet, or windy it might be!

Date:

Astronomy

Sep. 02, 2014 Rise Set
Actual Time 6:41 AM CDT 7:32 PM CDT
Civil Twilight 6:16 AM CDT 7:57 PM CDT
Nautical Twilight 5:46 AM CDT 8:27 PM CDT
Astronomical Twilight 5:15 AM CDT 8:58 PM CDT
Moon 2:07 PM CDT (9/2) No Moon Set
Length of Visible Light 13h 41m
Length of Day
12h 50m
First Quarter, 53% of the Moon is Illuminated
Sep 2
First Quarter
Sep 8
Full
Sep 15
Last Quarter
Sep 24
New
Oct 1
First Quarter

Hourly Weather History & Observations

Time (CDT) Temp. Heat Index Dew Point Humidity Pressure Visibility Wind Dir Wind Speed Gust Speed Precip Events Conditions
12:53 AM 75.9 °F - 72.0 °F 87% 29.98 in 10.0 mi SSW 4.6 mph - N/A   Clear
1:53 AM 75.0 °F - 72.0 °F 90% 29.96 in 10.0 mi South 8.1 mph - N/A   Clear
2:53 AM 75.0 °F - 72.0 °F 90% 29.95 in 10.0 mi South 6.9 mph - N/A   Clear
3:53 AM 75.0 °F - 73.0 °F 94% 29.94 in 10.0 mi South 6.9 mph - N/A   Clear
4:38 AM 75.0 °F - 73.0 °F 94% 29.97 in 10.0 mi South 6.9 mph - N/A   Mostly Cloudy
4:53 AM 75.9 °F - 73.0 °F 91% 29.97 in 10.0 mi South 8.1 mph - N/A   Overcast
5:10 AM 75.9 °F - 73.0 °F 91% 29.99 in 10.0 mi SSW 8.1 mph - N/A   Overcast
5:53 AM 75.9 °F - 73.0 °F 91% 29.99 in 10.0 mi South 6.9 mph - N/A   Overcast
6:05 AM 75.9 °F - 73.0 °F 91% 30.00 in 10.0 mi South 5.8 mph - N/A   Overcast
6:53 AM 75.9 °F - 73.0 °F 91% 30.01 in 10.0 mi South 3.5 mph - N/A   Overcast
7:12 AM 75.9 °F - 73.0 °F 91% 30.03 in 10.0 mi Calm Calm - N/A   Overcast
7:53 AM 77.0 °F - 73.0 °F 88% 30.04 in 10.0 mi Calm Calm - N/A   Overcast
8:53 AM 78.1 °F - 73.9 °F 87% 30.04 in 10.0 mi SSW 5.8 mph - N/A   Overcast
9:03 AM 79.0 °F - 73.9 °F 84% 30.04 in 10.0 mi South 4.6 mph - N/A   Overcast
9:53 AM 81.0 °F 86.2 °F 73.9 °F 79% 30.04 in 10.0 mi SW 6.9 mph - N/A   Overcast
10:01 AM 82.0 °F 88.6 °F 75.0 °F 79% 30.05 in 10.0 mi WSW 8.1 mph - N/A   Overcast
10:10 AM 82.9 °F 89.4 °F 73.9 °F 74% 30.05 in 10.0 mi SW 10.4 mph - N/A   Overcast
10:53 AM 82.0 °F 87.9 °F 73.9 °F 76% 30.05 in 10.0 mi West 6.9 mph - N/A   Overcast
11:07 AM 82.4 °F 88.2 °F 73.4 °F 74% 30.06 in 10.0 mi WSW 6.9 mph - N/A   Overcast
11:38 AM 82.9 °F 88.8 °F 73.0 °F 72% 30.06 in 10.0 mi WSW 8.1 mph - N/A   Overcast
11:53 AM 84.0 °F 91.2 °F 73.9 °F 72% 30.04 in 10.0 mi WSW 4.6 mph - N/A   Overcast
12:53 PM 80.1 °F 83.8 °F 72.0 °F 76% 30.04 in 10.0 mi West 21.9 mph 26.5 mph 0.03 in Rain Light Rain
1:32 PM 78.1 °F - 72.0 °F 81% 30.03 in 10.0 mi WNW 3.5 mph - 0.04 in Thunderstorm Mostly Cloudy
1:53 PM 78.1 °F - 73.0 °F 84% 30.03 in 10.0 mi NNW 12.7 mph 23.0 mph 0.04 in Rain Light Rain
2:02 PM 75.0 °F - 72.0 °F 90% 30.03 in 9.0 mi NW 15.0 mph - 0.01 in Rain Light Rain
2:14 PM 75.0 °F - 71.1 °F 87% 30.03 in 10.0 mi NNW 10.4 mph - 0.01 in   Mostly Cloudy
2:53 PM 77.0 °F - 72.0 °F 84% 30.00 in 10.0 mi Variable 3.5 mph - 0.01 in   Clear
3:53 PM 78.1 °F - 72.0 °F 81% 29.95 in 10.0 mi SE 10.4 mph - N/A   Clear
4:53 PM 79.0 °F - 71.1 °F 77% 29.90 in 10.0 mi SSE 6.9 mph - N/A   Clear
5:53 PM 79.0 °F - 73.0 °F 82% 29.92 in 10.0 mi SW 6.9 mph - N/A   Clear
6:53 PM 78.1 °F - 73.0 °F 84% 29.95 in 10.0 mi SSW 3.5 mph - N/A   Scattered Clouds
7:04 PM 79.0 °F - 72.0 °F 79% 29.96 in 10.0 mi West 3.5 mph - N/A   Mostly Cloudy
7:53 PM 78.1 °F - 73.0 °F 84% 29.96 in 10.0 mi Calm Calm - N/A   Overcast
8:53 PM 77.0 °F - 72.0 °F 84% 29.97 in 10.0 mi SW 3.5 mph - N/A   Scattered Clouds
9:53 PM 75.2 °F - 71.6 °F 89% 29.99 in 10.0 mi SSW 4.6 mph - N/A   Clear
10:53 PM 73.9 °F - 72.0 °F 93% 30.01 in 10.0 mi SSW 4.6 mph - N/A   Clear
11:53 PM 73.9 °F - 72.0 °F 93% 30.01 in 10.0 mi SW 6.9 mph - N/A   Partly Cloudy